Wind_Speed
24 27 32 24 9 7 10 17 12 9 14 14 7 9 10 12 14 21 25 30 27 34 32 35 36 31 30 35 36 31 30 30 32 37 35 29 25 31 30 30 31 30 29
40 38 36 34 31 26 20 17 14 20 14 6 4 10 11 11 13 16 21 27 29 31 33 35 32 34 30 26 27 35 30 33 29 40 38 34 36 32 33 36 33 31 32
48 45 39 38 38 31 26 17 11 8 4 10 11 9 10 12 15 17 18 23 24 23 26 28 32 35 35 37 31 32 35 38 38 38 37 36 39 36 35 30 31 34 28
45 46 41 41 38 33 31 29 24 18 13 9 8 1 3 8 12 13 14 15 16 20 23 23 25 29 31 34 34 35 35 38 40 38 39 38 41 36 34 31 33 32 30
46 45 43 35 37 36 37 32 25 23 20 17 11 5 3 4 4 5 9 11 14 17 21 23 25 28 30 31 30 32 34 39 43 36 38 35 30 36 37 35 32 30 30
41 40 37 39 32 33 34 35 30 30 28 22 21 19 16 15 14 9 8 7 9 10 13 17 22 27 29 27 31 33 33 27 29 30 27 32 34 33 32 32 31 31 32
40 42 41 37 32 34 34 33 34 35 30 28 26 25 24 22 20 16 14 12 12 12 12 13 14 17 22 24 28 31 34 34 32 31 31 30 33 35 34 31 32 34 34
44 40 37 34 34 31 30 33 32 30 29 29 29 28 27 26 22 21 18 16 14 14 15 15 16 16 16 17 20 21 21 22 28 33 35 36 37 38 36 34 34 34 33
40 40 35 33 30 27 30 30 29 29 29 29 29 26 25 24 22 21 20 20 19 20 19 18 17 16 17 16 16 15 15 15 19 22 23 31 34 40 41 40 38 38 39
37 35 34 33 32 32 30 29 27 26 25 25 25 26 25 25 24 23 23 21 20 20 19 18 18 20 20 19 17 14 13 13 12 15 15 19 22 22 28 33 35 36 42
25 27 28 31 31 30 27 26 24 24 22 24 24 23 24 25 24 25 23 22 22 21 21 21 22 22 21 20 18 16 15 13 12 12 11 10 11 13 15 16 19 26 28
22 22 24 23 24 24 26 26 26 24 24 24 22 22 22 22 21 20 20 19 17 18 19 19 20 21 20 18 17 16 13 11 10 9 9 8 7 7 7 6 8 9 16
21 23 24 24 25 26 28 29 30 30 29 27 26 25 24 23 22 19 19 19 18 17 17 18 17 16 15 15 14 12 12 13 13 13 13 13 13 11 9 8 7 5 1
22 22 23 24 25 26 28 30 32 33 32 30 30 28 25 24 23 23 23 22 21 20 19 18 15 14 14 14 13 14 14 13 14 13 13 12 10 9 9 9 8 8 5
18 19 20 21 20 19 22 24 27 29 30 30 30 30 28 27 26 23 22 20 19 18 16 16 15 16 17 17 16 15 13 11 12 12 12 11 11 10 9 10 9 9 11
17 18 17 17 18 18 17 16 20 23 26 26 29 31 30 25 23 20 18 17 20 16 15 16 17 17 17 15 13 13 13 12 13 12 11 11 11 11 10 9 8 10 14
17 16 18 14 16 18 18 18 20 17 20 22 25 28 30 28 21 24 15 9 11 13 14 15 12 12 12 13 12 12 13 11 9 11 11 9 9 9 9 8 8 7 9
17 15 19 17 15 18 19 18 18 19 19 20 19 24 28 29 20 21 22 14 10 11 9 13 13 12 11 12 13 11 14 13 10 10 10 9 10 10 5 6 6 8 6
17 17 21 18 16 17 18 18 18 17 19 19 20 23 27 31 15 17 21 20 13 13 11 10 13 13 10 8 9 7 8 6 7 8 8 8 8 8 6 7 9 8 5
14 15 18 17 17 18 18 18 19 18 19 20 20 22 26 28 20 17 19 20 16 12 13 10 12 15 11 8 5 7 6 6 3 3 6 4 6 6 7 5 5 6 6
14 15 16 16 16 17 18 19 17 18 19 20 19 22 23 25 20 19 18 19 19 15 14 11 10 14 15 10 8 5 5 7 4 1 1 6 5 3 3 4 5 3 6
12 16 17 16 17 18 20 18 18 20 19 19 20 20 20 21 20 21 19 21 21 18 18 15 10 12 14 10 11 8 8 8 5 5 3 4 3 1 4 2 2 2 5
13 16 20 17 19 19 21 19 20 21 19 21 22 21 19 18 19 20 20 22 22 22 17 19 17 15 12 9 11 13 10 8 7 1 4 2 2 2 1 3 3 2 2
16 18 21 20 20 22 21 22 22 20 22 22 22 21 20 20 19 19 19 18 20 23 19 17 18 17 18 13 12 12 10 8 5 2 4 5 1 3 3 1 3 2 2
22 20 20 21 23 24 25 24 23 24 23 23 23 22 21 20 19 19 18 19 22 22 18 17 17 18 21 19 11 12 12 9 5 2 2 4 2 1 4 5 2 3 2
19 20 22 24 25 25 26 27 27 24 26 26 24 24 21 19 19 19 19 19 19 19 20 16 13 18 19 17 15 16 14 10 5 4 5 4 6 5 4 2 6 3 3
Wind_Direction
55 78 91 90 99 137 173 186 198 149 143 218 267 220 221 216 235 251 254 246 242 240 246 249 252 259 241 273 274 280 269 262 266 278 274 264 249 264 271 283 279 275 261
52 68 74 80 80 88 125 142 121 179 195 336 190 200 219 224 231 243 238 243 240 244 246 254 256 246 251 262 267 250 260 264 270 264 275 271 262 267 278 282 275 268 268
56 58 64 63 64 74 80 99 142 148 172 245 283 265 240 240 235 235 239 240 242 242 246 251 257 260 261 260 264 261 265 269 274 269 260 273 264 272 277 272 278 277 265
58 63 62 58 56 63 75 81 87 107 128 185 217 167 228 242 241 237 239 238 243 247 246 250 256 263 268 272 274 272 264 269 267 267 251 264 261 267 267 271 274 266 267
60 58 61 63 56 56 63 66 71 83 85 78 86 80 15 336 338 308 279 282 275 265 259 255 251 252 254 257 260 258 261 264 259 250 250 261 241 261 258 269 270 267 270
61 63 69 70 67 64 68 71 74 75 73 72 67 62 59 54 38 10 335 327 317 298 283 270 268 265 261 264 258 262 259 258 240 241 250 264 266 259 267 269 267 258 255
57 58 60 62 62 63 63 65 64 66 66 67 64 59 58 54 43 33 28 20 5 356 342 330 305 291 280 270 262 262 264 258 258 256 260 261 264 269 272 270 267 261 258
50 51 54 57 58 57 59 59 58 62 61 59 58 53 51 51 46 40 39 36 29 20 12 2 352 341 329 313 292 282 278 268 255 253 256 254 255 258 258 259 264 264 258
42 44 45 47 49 51 54 56 53 52 51 50 51 49 49 49 45 43 40 39 36 32 27 19 10 3 360 347 332 317 301 293 284 280 274 262 257 256 251 252 251 242 248
29 34 35 37 39 39 40 44 47 46 46 47 46 45 44 42 38 36 35 35 34 32 28 25 24 20 12 12 2 346 345 333 322 303 294 291 294 284 269 252 242 236 235
37 28 38 27 29 31 37 40 42 42 41 42 40 36 34 34 32 31 30 26 27 23 22 21 21 19 16 10 11 15 17 2 347 336 329 319 310 301 295 278 262 249 233
26 43 30 45 35 24 28 37 37 36 36 35 32 33 30 28 24 27 28 27 21 20 20 16 19 14 13 12 16 19 16 20 13 11 7 13 13 14 356 339 305 281 256
26 22 28 26 29 17 20 15 20 22 24 23 21 20 19 16 15 18 20 18 19 20 19 15 13 10 11 16 17 16 22 29 28 31 29 34 32 25 21 19 14 12 306
16 19 24 18 18 16 12 11 8 11 12 13 13 11 7 5 5 6 6 4 5 7 12 11 11 11 10 10 15 16 18 24 27 30 27 26 27 18 18 27 23 33 31
21 13 22 17 16 17 12 10 3 3 7 7 5 3 360 359 1 2 2 3 3 5 2 358 5 12 13 14 14 15 18 21 24 26 24 24 27 28 33 43 53 52 67
20 8 18 13 8 6 9 7 360 0 3 0 356 352 354 354 356 357 359 8 6 5 360 5 10 16 14 7 8 11 7 19 22 19 24 27 30 34 40 52 64 81 89
24 6 4 11 4 357 1 0 358 359 354 355 346 340 345 352 357 354 2 23 3 353 11 356 355 5 5 352 352 355 352 7 12 11 9 17 24 26 33 42 59 84 103
20 356 354 3 2 355 358 352 351 348 345 343 342 334 329 341 358 350 352 347 345 348 9 358 344 340 342 355 355 15 4 13 22 20 16 23 36 21 20 39 57 51 56
9 352 353 356 6 352 343 342 341 339 337 334 334 324 329 338 351 343 343 349 356 350 347 357 338 331 338 342 358 350 12 3 32 24 22 32 42 22 39 56 77 85 88
4 354 345 357 351 341 340 336 331 334 333 331 333 329 331 337 354 348 343 338 344 343 341 340 341 330 327 327 326 338 322 330 305 49 42 41 53 54 31 24 91 75 58
8 343 343 346 344 337 328 322 330 330 327 326 325 325 329 334 339 336 335 334 339 337 330 329 331 319 321 319 319 302 315 291 282 258 149 69 39 21 54 77 55 86 105
1 339 338 340 333 325 325 332 324 322 322 322 319 317 319 321 322 325 326 323 327 328 327 328 309 305 313 334 330 316 285 297 311 192 138 118 48 46 35 348 94 139 142
350 329 330 330 323 323 321 325 322 323 321 319 319 319 319 320 320 321 320 318 318 327 320 324 324 328 323 298 303 317 327 323 320 299 172 165 73 194 78 329 262 271 272
326 312 319 319 319 319 321 318 321 320 318 318 318 317 315 313 312 311 317 312 312 321 325 318 327 319 324 326 322 328 329 330 325 310 211 222 233 201 214 197 39 182 131
308 312 312 310 312 312 313 313 310 311 311 313 315 314 313 310 308 309 307 306 311 316 322 326 318 319 330 318 329 337 331 330 312 277 244 257 100 213 231 229 209 326 305
316 313 310 309 309 308 308 308 307 305 307 300 303 305 310 307 306 304 306 305 304 306 311 313 315 316 322 318 317 326 330 334 324 240 222 228 215 226 231 237 160 102 352
Height
1379 1365 1357 1363 1366 1367 1372 1371 1372 1390 1396 1398 1404 1412 1417 1425 1430 1438 1437 1440 1440 1443 1448 1448 1450 1453 1453 1451 1451 1459 1459 1459 1461 1459 1462 1465 1465 1465 1467 1468 1469 1470 1470
1376 1360 1361 1373 1378 1378 1379 1381 1378 1386 1390 1400 1404 1412 1416 1421 1428 1431 1433 1435 1436 1438 1441 1444 1444 1448 1448 1448 1443 1445 1446 1450 1451 1452 1454 1456 1457 1459 1458 1458 1459 1460 1460
1375 1373 1373 1378 1381 1381 1386 1383 1388 1390 1399 1407 1410 1409 1415 1418 1422 1426 1427 1430 1431 1432 1436 1437 1439 1443 1443 1442 1440 1439 1439 1438 1440 1444 1443 1447 1448 1449 1449 1449 1449 1450 1450
1392 1387 1386 1395 1393 1403 1396 1393 1391 1395 1400 1410 1414 1414 1415 1417 1420 1424 1426 1425 1425 1428 1430 1429 1430 1432 1433 1432 1431 1429 1428 1428 1431 1432 1431 1436 1438 1439 1440 1440 1440 1440 1440
1404 1397 1392 1401 1406 1406 1391 1394 1406 1403 1406 1412 1411 1414 1420 1420 1421 1420 1421 1420 1421 1424 1424 1423 1423 1423 1422 1422 1420 1421 1420 1419 1420 1421 1424 1427 1426 1428 1429 1432 1431 1432 1431
1425 1427 1428 1418 1425 1422 1419 1416 1423 1415 1410 1416 1419 1422 1423 1421 1419 1419 1419 1418 1419 1420 1420 1418 1417 1415 1415 1414 1412 1412 1412 1409 1404 1410 1415 1417 1418 1421 1422 1422 1423 1423 1422
1435 1429 1426 1430 1439 1434 1432 1432 1427 1417 1425 1429 1426 1426 1425 1422 1419 1421 1420 1417 1419 1420 1417 1413 1412 1409 1408 1406 1406 1405 1405 1403 1402 1406 1408 1410 1412 1414 1414 1414 1415 1414 1414
1437 1439 1440 1444 1443 1444 1444 1436 1434 1436 1439 1434 1428 1427 1425 1425 1427 1425 1420 1421 1422 1419 1414 1411 1411 1408 1403 1400 1400 1397 1398 1393 1395 1398 1400 1401 1402 1405 1404 1405 1407 1406 1406
1448 1449 1452 1452 1450 1452 1447 1442 1440 1435 1434 1432 1431 1434 1432 1432 1431 1428 1427 1423 1421 1416 1415 1414 1411 1408 1401 1398 1397 1395 1393 1390 1389 1392 1391 1391 1391 1393 1394 1396 1397 1396 1395
1458 1457 1457 1455 1452 1448 1446 1443 1441 1440 1441 1439 1436 1436 1434 1431 1431 1426 1423 1422 1423 1421 1418 1416 1412 1407 1402 1400 1396 1394 1388 1389 1388 1389 1387 1385 1386 1385 1385 1385 1385 1385 1387
1470 1467 1462 1459 1455 1454 1453 1451 1449 1446 1447 1439 1437 1439 1436 1433 1431 1427 1426 1426 1425 1424 1422 1419 1414 1409 1404 1401 1399 1395 1390 1389 1389 1389 1387 1384 1383 1382 1381 1379 1376 1379 1377
1474 1472 1470 1469 1467 1462 1455 1453 1452 1452 1447 1444 1444 1442 1441 1439 1437 1434 1434 1434 1433 1430 1424 1421 1411 1408 1407 1405 1401 1397 1395 1391 1393 1390 1389 1385 1383 1380 1379 1377 1376 1373 1373
1472 1468 1467 1464 1461 1457 1453 1450 1448 1446 1444 1443 1442 1441 1439 1440 1440 1439 1436 1434 1431 1427 1421 1415 1411 1411 1410 1407 1404 1402 1400 1394 1393 1389 1392 1388 1385 1383 1381 1378 1376 1376 1373
1472 1469 1466 1462 1459 1457 1454 1451 1449 1447 1445 1444 1441 1440 1439 1438 1436 1434 1431 1428 1425 1422 1420 1417 1415 1414 1411 1408 1405 1403 1400 1398 1397 1396 1394 1391 1387 1388 1384 1379 1379 1376 1374
1476 1473 1470 1468 1466 1464 1461 1459 1456 1454 1452 1448 1446 1444 1441 1438 1437 1435 1431 1429 1426 1424 1422 1420 1417 1414 1410 1408 1406 1405 1404 1402 1400 1397 1395 1393 1390 1389 1388 1383 1380 1380 1377
1479 1477 1475 1474 1471 1469 1467 1466 1463 1460 1457 1456 1453 1450 1448 1444 1440 1436 1432 1430 1428 1426 1423 1421 1418 1416 1415 1413 1411 1408 1406 1403 1401 1399 1397 1396 1394 1392 1391 1387 1386 1384 1383
1481 1480 1478 1476 1474 1473 1471 1468 1466 1465 1462 1459 1455 1451 1449 1445 1441 1437 1434 1431 1429 1427 1425 1423 1421 1419 1418 1415 1413 1409 1407 1404 1403 1401 1399 1397 1396 1394 1392 1391 1390 1389 1388
1482 1481 1478 1475 1474 1472 1471 1469 1466 1465 1462 1461 1459 1451 1449 1447 1442 1438 1434 1431 1429 1427 1426 1424 1422 1420 1418 1415 1413 1411 1408 1406 1404 1402 1401 1399 1397 1395 1395 1394 1393 1393 1391
1481 1481 1478 1476 1474 1473 1470 1468 1466 1464 1462 1460 1457 1452 1449 1446 1443 1440 1435 1432 1431 1429 1427 1425 1423 1420 1417 1415 1413 1411 1409 1407 1405 1403 1402 1401 1400 1399 1397 1396 1396 1395 1394
1483 1482 1479 1476 1474 1472 1469 1467 1465 1463 1461 1458 1456 1451 1448 1445 1443 1441 1438 1435 1433 1430 1428 1425 1422 1418 1416 1413 1411 1409 1407 1405 1404 1402 1402 1401 1401 1400 1399 1398 1396 1396 1396
1483 1482 1479 1476 1474 1472 1469 1466 1464 1462 1459 1457 1455 1451 1448 1445 1443 1441 1438 1434 1432 1429 1426 1424 1421 1417 1413 1411 1409 1407 1405 1403 1402 1402 1400 1401 1401 1400 1399 1398 1397 1397 1397
1483 1481 1478 1475 1473 1470 1468 1466 1463 1460 1458 1455 1452 1450 1448 1445 1442 1439 1437 1433 1430 1427 1424 1421 1419 1415 1412 1410 1407 1405 1403 1401 1400 1400 1401 1399 1400 1400 1399 1398 1397 1396 1396
1481 1480 1477 1474 1472 1469 1466 1463 1460 1458 1455 1453 1450 1447 1445 1442 1440 1437 1434 1431 1427 1425 1422 1420 1416 1414 1411 1409 1405 1403 1402 1400 1399 1399 1399 1399 1398 1399 1398 1397 1397 1396 1396
1480 1478 1475 1472 1469 1467 1464 1461 1458 1456 1453 1451 1448 1445 1443 1440 1438 1435 1432 1429 1425 1423 1421 1418 1415 1411 1409 1407 1405 1403 1401 1400 1399 1398 1398 1398 1398 1399 1398 1397 1396 1396 1395
1477 1474 1472 1469 1466 1464 1461 1458 1455 1453 1450 1448 1445 1442 1440 1437 1435 1432 1430 1427 1424 1421 1419 1417 1414 1412 1409 1404 1403 1401 1400 1398 1398 1397 1397 1397 1397 1396 1396 1396 1397 1396 1396
1473 1471 1468 1465 1462 1460 1457 1454 1451 1448 1445 1442 1439 1437 1436 1434 1431 1429 1427 1425 1422 1420 1418 1416 1413 1410 1408 1404 1402 1401 1399 1397 1396 1396 1396 1395 1395 1395 1395 1395 1396 1396 1396